1484546400.26,24895,4.44,72484.8,-20.25,-20.89,-20.99,0,*66
1484546401.51,24896,4.44,72482.5,-20.25,-20.89,-20.99,0,*65
1484546402.78,24897,4.44,72482.3,-20.25,-20.99,-21.03,0,*67
1484546404.0,24898,4.44,72482.3,-20.25,-20.93,-20.93,0,*6A
1484546405.25,24899,4.44,72484.3,-20.25,-20.99,-20.89,0,*6A
1484546406.52,24900,4.44,72482.0,-20.25,-20.99,-20.99,0,*6A
1484546407.79,24901,4.44,72486.5,-20.25,-20.99,-20.99,0,*6B
1484546409.06,24902,4.44,72484.5,-20.25,-20.99,-20.99,0,*68
1484546410.31,24903,4.44,72488.8,-20.25,-20.89,-20.99,0,*68
1484546411.56,24904,4.44,72486.5,-20.25,-20.89,-21.03,0,*6D
1484546412.83,24905,4.44,72484.5,-20.25,-21.03,-21.03,0,*6F
1484546414.1,24906,4.44,72482.3,-20.25,-21.03,-21.03,0,*6C
1484546415.39,24907,4.44,72482.5,-20.23,-20.99,-21.03,0,*69
1484546416.66,24908,4.44,72480.8,-20.25,-21.03,-20.99,0,*60
1484546417.9,24909,4.44,72478.3,-20.27,-21.09,-21.09,0,*61
1484546419.17,24910,4.44,72482.3,-20.25,-21.03,-21.03,0,*6B
1484546420.41,24911,4.44,72480.3,-20.25,-21.13,-20.99,0,*69
1484546421.65,24912,4.44,72482.3,-20.25,-21.13,-21.03,0,*68
1484546422.87,24913,4.44,72474.0,-20.25,-21.13,-21.13,0,*68
1484546424.14,24914,4.44,72480.5,-20.25,-21.03,-21.03,0,*6F
1484546425.41,24915,4.44,72478.3,-20.25,-21.03,-21.03,0,*6E
1484546426.67,24916,4.44,72476.3,-20.23,-20.99,-21.13,0,*68
1484546427.92,24917,4.44,72476.8,-20.25,-21.03,-21.13,0,*6D
1484546429.15,24918,4.44,72482.8,-20.27,-21.09,-21.09,0,*61
1484546430.42,24919,4.44,72482.5,-20.23,-21.03,-21.13,0,*65
1484546431.71,24920,4.44,72480.8,-20.23,-21.03,-21.03,0,*6E
1484546432.97,24921,4.44,72480.5,-20.23,-21.03,-21.13,0,*6E
1484546434.22,24922,4.44,72480.3,-20.25,-21.13,-21.03,0,*6B
1484546435.51,24923,4.44,72482.5,-20.23,-21.03,-20.99,0,*6F
1484546436.75,24924,4.44,72482.3,-20.25,-21.13,-21.03,0,*6D
1484546437.97,24925,4.44,72486.3,-20.25,-21.13,-21.13,0,*6D
1484546439.24,24926,4.44,72480.5,-20.25,-21.03,-20.99,0,*6C
1484546440.51,24927,4.44,72480.3,-20.21,-21.03,-21.03,0,*6B
1484546441.8,24928,4.44,72480.3,-20.23,-20.99,-21.03,0,*64
1484546443.1,24929,4.44,72482.5,-20.23,-21.03,-21.03,0,*67
1484546444.39,24930,4.44,72480.8,-20.23,-21.03,-21.03,0,*6F
1484546445.66,24931,4.44,72480.3,-20.25,-21.03,-20.99,0,*6A
1484546446.92,24932,4.44,72480.0,-20.23,-21.13,-20.99,0,*6E
1484546448.22,24933,4.44,72478.8,-20.23,-21.03,-21.03,0,*6C
1484546449.51,24934,4.44,72482.0,-20.23,-21.03,-21.03,0,*6B
1484546450.8,24935,4.44,72482.8,-20.23,-20.99,-21.03,0,*68
1484546452.09,24936,4.44,72480.5,-20.23,-20.99,-21.03,0,*6B
1484546453.39,24937,4.44,72478.3,-20.23,-20.99,-21.03,0,*6A
1484546454.68,24938,4.44,72478.5,-20.23,-20.99,-21.03,0,*65
1484546455.97,24939,4.44,72480.3,-20.23,-21.03,-21.03,0,*66
1484546457.22,24940,4.44,72484.3,-20.21,-20.99,-21.13,0,*69
1484546458.46,24941,4.44,72480.5,-20.23,-21.13,-21.13,0,*69
1484546459.75,24942,4.44,72480.3,-20.23,-20.99,-21.03,0,*68
1484546461.04,24943,4.44,72480.3,-20.23,-21.03,-21.03,0,*6B
1484546462.33,24944,4.44,72480.3,-20.23,-21.03,-21.03,0,*6C
1484546463.63,24945,4.44,72480.0,-20.23,-21.03,-21.03,0,*6D
1484546464.92,24946,4.44,72482.5,-20.23,-20.99,-21.03,0,*6C
1484546466.19,24947,4.44,72480.5,-20.21,-21.03,-21.03,0,*6D
1484546467.48,24948,4.44,72482.3,-20.23,-21.03,-21.03,0,*60
1484546468.78,24949,4.44,72478.8,-20.23,-21.03,-21.03,0,*61
1484546470.05,24950,4.44,72480.0,-20.21,-21.03,-21.03,0,*6B
1484546471.34,24951,4.44,72482.5,-20.23,-21.03,-21.03,0,*68
1484546472.59,24952,4.44,72482.0,-20.21,-21.03,-20.89,0,*6A
1484546473.89,24953,4.44,72484.0,-20.23,-21.03,-20.99,0,*68
1484546475.18,24954,4.44,72484.0,-20.23,-20.99,-20.99,0,*6D
1484546476.45,24955,4.44,72484.8,-20.21,-21.03,-20.99,0,*6C
1484546477.72,24956,4.44,72486.5,-20.21,-20.99,-21.03,0,*6F
1484546479.02,24957,4.44,72480.3,-20.23,-21.03,-21.03,0,*6E
1484546480.29,24958,4.44,72480.8,-20.21,-21.03,-21.03,0,*63
1484546481.56,24959,4.44,72480.8,-20.21,-21.03,-21.03,0,*62
1484546482.85,24960,4.44,72486.3,-20.23,-21.03,-20.99,0,*68
1484546484.13,24961,4.44,72480.8,-20.21,-20.99,-20.99,0,*69
1484546485.42,24962,4.44,72480.5,-20.23,-20.99,-20.99,0,*68
1484546486.71,24963,4.44,72480.5,-20.23,-21.03,-21.03,0,*69
1484546488.01,24964,4.44,72484.0,-20.23,-21.03,-21.03,0,*6E
1484546489.3,24965,4.44,72482.3,-20.23,-20.99,-21.03,0,*6D
1484546490.59,24966,4.44,72486.0,-20.23,-20.99,-20.99,0,*6C
1484546491.89,24967,4.44,72480.5,-20.23,-20.99,-20.99,0,*6D
1484546493.18,24968,4.44,72484.3,-20.23,-20.99,-21.03,0,*60
1484546494.47,24969,4.44,72484.3,-20.23,-20.99,-21.03,0,*61
1484546495.74,24970,4.44,72484.8,-20.21,-20.99,-21.03,0,*6B
1484546497.04,24971,4.44,72482.5,-20.23,-20.99,-20.99,0,*6A
1484546498.31,24972,4.44,72482.5,-20.21,-21.03,-21.03,0,*6B
1484546499.6,24973,4.44,72482.5,-20.23,-20.99,-20.99,0,*68
1484546500.88,24974,4.44,72482.8,-20.21,-21.03,-20.99,0,*6F
1484546502.12,24975,4.44,72478.0,-20.21,-20.89,-20.99,0,*6D
1484546503.4,24976,4.44,72482.8,-20.21,-20.99,-20.99,0,*6F
1484546504.67,24977,4.44,72486.0,-20.21,-20.99,-20.99,0,*6E
1484546505.94,24978,4.44,72480.0,-20.21,-20.99,-20.99,0,*61
1484546507.22,24979,4.44,72480.3,-20.21,-21.03,-21.03,0,*60
1484546508.51,24980,4.44,72480.3,-20.23,-21.03,-21.03,0,*64
1484546509.78,24981,4.44,72484.5,-20.21,-20.99,-20.99,0,*67
1484546511.05,24982,4.44,72480.5,-20.21,-21.03,-20.99,0,*66
1484546512.33,24983,4.44,72476.0,-20.21,-20.99,-21.03,0,*67
1484546513.6,24984,4.44,72482.5,-20.21,-21.03,-21.03,0,*62
1484546514.87,24985,4.44,72480.8,-20.21,-21.03,-21.03,0,*63
1484546516.14,24986,4.44,72478.3,-20.21,-20.99,-20.99,0,*60
1484546517.41,24987,4.44,72484.0,-20.21,-20.99,-20.99,0,*61
1484546518.69,24988,4.44,72484.0,-20.21,-21.03,-20.99,0,*6C
1484546519.96,24989,4.44,72482.3,-20.21,-20.99,-21.03,0,*6D
1484546521.23,24990,4.44,72482.5,-20.21,-21.03,-21.03,0,*67
1484546522.5,24991,4.44,72480.5,-20.21,-21.03,-20.99,0,*64
1484546523.78,24992,4.44,72480.8,-20.21,-21.03,-21.03,0,*65
1484546525.05,24993,4.44,72482.3,-20.21,-21.03,-20.99,0,*66
1484546526.32,24994,4.44,72482.3,-20.21,-20.99,-21.03,0,*61
1484546527.59,24995,4.44,72484.8,-20.21,-20.99,-20.99,0,*62
1484546528.87,24996,4.44,72480.5,-20.21,-21.03,-20.99,0,*63
1484546530.14,24997,4.44,72482.0,-20.21,-21.03,-21.03,0,*60
1484546531.41,24998,4.44,72482.0,-20.21,-21.03,-21.03,0,*6F
1484546532.68,24999,4.44,72482.3,-20.21,-21.03,-20.99,0,*6C
1484546533.95,25000,4.44,72484.3,-20.21,-21.03,-21.03,0,*66
1484546535.22,25001,4.44,72484.3,-20.21,-21.03,-21.03,0,*67
1484546536.5,25002,4.44,72480.8,-20.21,-20.99,-20.99,0,*64
1484546537.77,25003,4.44,72482.3,-20.21,-20.99,-20.99,0,*65
1484546539.04,25004,4.44,72480.0,-20.19,-20.99,-20.93,0,*63
1484546540.28,25005,4.44,72482.8,-20.19,-20.93,-20.93,0,*68
1484546541.52,25006,4.44,72480.0,-20.19,-20.93,-20.93,0,*6B
1484546542.79,25007,4.44,72480.3,-20.19,-20.93,-20.99,0,*60
1484546544.06,25008,4.44,72482.3,-20.19,-20.99,-20.93,0,*6F
1484546545.35,25009,4.44,72480.5,-20.19,-20.99,-20.99,0,*64
1484546546.63,25010,4.44,72480.0,-20.19,-20.99,-20.93,0,*66
1484546547.87,25011,4.44,72480.0,-20.21,-20.89,-20.99,0,*67
1484546549.15,25012,4.44,72480.5,-20.21,-20.99,-20.99,0,*65
1484546550.44,25013,4.44,72480.0,-20.19,-20.99,-20.99,0,*6F
1484546551.71,25014,4.44,72480.0,-20.21,-20.99,-21.03,0,*61
1484546552.96,25015,4.44,72478.5,-20.17,-20.99,-20.93,0,*6D
1484546554.23,25016,4.44,72480.8,-20.19,-20.93,-20.99,0,*60
1484546555.47,25017,4.44,72482.3,-20.19,-20.93,-20.93,0,*6B
1484546556.76,25018,4.44,72482.5,-20.19,-20.99,-20.99,0,*64
1484546557.98,25019,4.44,72480.5,-20.17,-20.93,-20.93,0,*6B
1484546559.25,25020,4.44,72482.5,-20.19,-20.93,-20.99,0,*65
1484546560.52,25021,4.44,72486.0,-20.19,-20.99,-20.93,0,*64
1484546561.78,25022,4.44,72484.3,-20.19,-20.93,-20.99,0,*67
1484546563.05,25023,4.44,72486.5,-20.19,-20.93,-20.99,0,*66
1484546564.29,25024,4.44,72482.3,-20.19,-20.93,-20.93,0,*6B
1484546565.56,25025,4.44,72482.8,-20.17,-20.99,-20.99,0,*64
1484546566.83,25026,4.44,72480.3,-20.19,-20.93,-20.99,0,*63
1484546568.12,25027,4.44,72480.0,-20.19,-20.99,-20.99,0,*68
1484546569.36,25028,4.44,72484.3,-20.19,-20.93,-20.93,0,*67
1484546570.61,25029,4.44,72484.0,-20.19,-20.93,-20.93,0,*66
1484546571.83,25030,4.44,72480.0,-20.17,-20.93,-20.93,0,*60
1484546573.05,25031,4.44,72482.0,-20.17,-20.93,-20.93,0,*61
1484546574.26,25032,4.44,72484.0,-20.17,-21.09,-20.93,0,*60
1484546575.53,25033,4.44,72486.5,-20.17,-20.99,-20.99,0,*63
1484546576.8,25034,4.44,72480.5,-20.17,-20.99,-20.99,0,*64
1484546578.02,25035,4.44,72478.8,-20.17,-20.93,-20.93,0,*65
1484546579.24,25036,4.44,72480.3,-20.17,-20.93,-20.93,0,*66
1484546580.49,25037,4.44,72482.8,-20.17,-20.99,-20.93,0,*6D
1484546581.76,25038,4.44,72484.3,-20.19,-20.99,-20.93,0,*6C
1484546583.0,25039,4.44,72486.0,-20.17,-20.93,-20.99,0,*63
1484546584.3,25040,4.44,72482.8,-20.19,-20.99,-20.99,0,*69
1484546585.54,25041,4.44,72484.5,-20.19,-20.93,-20.93,0,*68
1484546586.79,25042,4.44,72480.0,-20.17,-20.99,-20.93,0,*6F
1484546588.05,25043,4.44,72484.0,-20.19,-20.93,-20.99,0,*60
1484546589.3,25044,4.44,72480.5,-20.17,-20.93,-20.99,0,*69
1484546590.59,25045,4.44,72482.5,-20.19,-20.99,-20.99,0,*6C
1484546591.81,25046,4.44,72484.8,-20.17,-20.93,-20.93,0,*61
1484546593.08,25047,4.44,72480.3,-20.17,-20.99,-20.99,0,*60
1484546594.35,25048,4.44,72484.3,-20.17,-20.99,-20.99,0,*6F
1484546595.59,25049,4.44,72484.3,-20.17,-20.93,-20.99,0,*64
1484546596.81,25050,4.44,72484.0,-20.17,-20.93,-20.93,0,*66
1484546598.11,25051,4.44,72484.0,-20.19,-20.99,-20.99,0,*69
1484546599.35,25052,4.44,72482.0,-20.17,-20.99,-20.93,0,*6E
1484546600.59,25053,4.44,72482.0,-20.17,-20.93,-20.99,0,*6F
1484546601.89,25054,4.44,72486.3,-20.19,-20.99,-20.99,0,*6C
1484546603.1,25055,4.44,72480.8,-20.17,-20.93,-21.09,0,*61
1484546604.36,25056,4.44,72482.0,-20.19,-20.99,-21.09,0,*66
1484546605.58,25057,4.44,72486.8,-20.17,-20.93,-20.93,0,*61
1484546606.82,25058,4.44,72482.3,-20.19,-20.93,-20.93,0,*60
1484546608.09,25059,4.44,72484.5,-20.17,-20.99,-20.99,0,*6F
1484546609.33,25060,4.44,72484.5,-20.17,-20.99,-21.09,0,*6D
1484546610.58,25061,4.44,72484.5,-20.17,-20.93,-20.99,0,*6E
1484546611.87,25062,4.44,72482.5,-20.19,-20.99,-20.99,0,*69
1484546613.11,25063,4.44,72486.3,-20.19,-20.93,-21.09,0,*6A
1484546614.37,25064,4.44,72480.3,-20.19,-20.99,-21.09,0,*67
1484546615.63,25065,4.44,72486.0,-20.19,-20.99,-21.09,0,*66
1484546616.92,25066,4.44,72484.5,-20.19,-20.99,-20.99,0,*6D
1484546618.16,25067,4.44,72486.3,-20.17,-20.99,-21.09,0,*6A
1484546619.4,25068,4.44,72482.5,-20.19,-21.09,-21.09,0,*63
1484546620.63,25069,4.44,72484.3,-20.19,-21.09,-21.09,0,*62
1484546621.84,25070,4.44,72482.0,-20.17,-21.13,-21.09,0,*6F
1484546623.05,25071,4.44,72482.0,-20.17,-21.09,-21.09,0,*65
1484546624.29,25072,4.44,72480.5,-20.17,-20.99,-21.13,0,*65
1484546625.5,25073,4.44,72480.3,-20.17,-21.09,-21.09,0,*67
1484546626.71,25074,4.44,72480.8,-20.17,-21.09,-21.09,0,*60
1484546627.95,25075,4.44,72480.3,-20.19,-21.09,-20.93,0,*6D
1484546629.19,25076,4.44,72484.3,-20.17,-21.09,-20.99,0,*6A
1484546630.4,25077,4.44,72484.5,-20.17,-21.09,-21.09,0,*63
1484546631.62,25078,4.44,72482.5,-20.17,-21.09,-20.93,0,*6E
1484546632.85,25079,4.44,72484.8,-20.19,-21.09,-21.09,0,*63
1484546634.06,25080,4.44,72482.8,-20.17,-21.09,-21.09,0,*6B
1484546635.27,25081,4.44,72480.8,-20.17,-21.09,-21.09,0,*6A
1484546636.48,25082,4.44,72486.3,-20.17,-21.09,-21.09,0,*69
1484546637.68,25083,4.44,72486.5,-20.17,-21.09,-21.09,0,*68
1484546638.92,25084,4.44,72486.3,-20.19,-21.09,-21.09,0,*61
1484546640.13,25085,4.44,72486.8,-20.17,-21.09,-21.13,0,*65
1484546641.36,25086,4.44,72484.5,-20.19,-21.09,-21.09,0,*63
1484546642.6,25087,4.44,72482.5,-20.19,-21.13,-21.09,0,*69
1484546643.83,25088,4.44,72482.5,-20.19,-21.09,-21.13,0,*66
1484546645.08,25089,4.44,72486.0,-20.17,-20.99,-21.13,0,*61
1484546646.29,25090,4.44,72484.8,-20.17,-21.09,-21.09,0,*6A
1484546647.53,25091,4.44,72484.5,-20.17,-21.13,-20.99,0,*68
1484546648.74,25092,4.44,72486.8,-20.17,-21.09,-21.09,0,*68
1484546649.98,25093,4.44,72486.3,-20.17,-20.99,-21.09,0,*61
1484546651.22,25094,4.44,72488.0,-20.17,-20.99,-21.09,0,*66
1484546652.43,25095,4.44,72484.3,-20.17,-21.09,-21.09,0,*6F
1484546653.64,25096,4.44,72484.0,-20.17,-21.13,-21.09,0,*67
1484546654.88,25097,4.44,72484.8,-20.17,-20.99,-20.93,0,*67
1484546656.16,25098,4.44,72486.3,-20.17,-20.99,-20.99,0,*62
1484546657.4,25099,4.44,72482.5,-20.17,-20.99,-21.09,0,*6B
1484546658.63,25100,4.44,72484.8,-20.17,-20.99,-21.09,0,*6A
1484546659.87,25101,4.44,72480.8,-20.19,-21.09,-21.09,0,*6D
1484546661.11,25102,4.44,72486.5,-20.17,-21.09,-20.99,0,*68
1484546662.37,25103,4.44,72484.5,-20.19,-21.09,-20.99,0,*67
1484546663.58,25104,4.44,72484.0,-20.17,-21.09,-21.09,0,*66
1484546664.79,25105,4.44,72482.5,-20.17,-21.09,-21.09,0,*67
1484546666.0,25106,4.44,72484.3,-20.17,-21.09,-21.13,0,*6F
1484546667.21,25107,4.44,72484.8,-20.17,-21.09,-21.13,0,*6E
1484546668.42,25108,4.44,72484.3,-20.17,-21.09,-21.09,0,*6A
1484546669.66,25109,4.44,72482.0,-20.19,-21.13,-21.09,0,*6E
1484546670.87,25110,4.44,72486.3,-20.17,-21.09,-21.09,0,*63
1484546672.08,25111,4.44,72482.8,-20.17,-21.09,-21.13,0,*69
1484546673.29,25112,4.44,72484.5,-20.17,-21.13,-21.09,0,*6A
1484546674.51,25113,4.44,72484.5,-20.17,-21.09,-21.13,0,*6B
1484546675.72,25114,4.44,72478.8,-20.17,-21.09,-21.13,0,*6C
1484546676.93,25115,4.44,72482.3,-20.17,-21.09,-21.13,0,*6D
1484546678.14,25116,4.44,72480.0,-20.17,-21.09,-21.13,0,*6E
1484546679.36,25117,4.44,72482.0,-20.17,-21.13,-21.13,0,*64
1484546680.6,25118,4.44,72484.3,-20.19,-21.13,-21.13,0,*65
1484546681.81,25119,4.44,72482.3,-20.17,-21.09,-21.09,0,*6A
1484546683.05,25120,4.44,72480.8,-20.19,-21.13,-21.13,0,*6E
1484546684.26,25121,4.44,72482.0,-20.17,-21.09,-21.13,0,*6A
1484546685.47,25122,4.44,72480.5,-20.17,-21.13,-21.13,0,*62
1484546686.69,25123,4.44,72478.5,-20.17,-21.13,-21.09,0,*68
1484546687.93,25124,4.44,72478.3,-20.19,-21.13,-21.13,0,*6A
1484546689.13,25125,4.44,72480.0,-20.17,-21.09,-21.09,0,*65
1484546690.35,25126,4.44,72482.5,-20.17,-21.09,-21.13,0,*6D
1484546691.56,25127,4.44,72484.5,-20.17,-21.13,-21.13,0,*67
1484546692.78,25128,4.44,72480.0,-20.17,-21.09,-21.13,0,*63
1484546693.99,25129,4.44,72480.8,-20.17,-21.13,-21.13,0,*69
1484546695.21,25130,4.44,72480.3,-20.17,-21.13,-21.13,0,*61
1484546696.42,25131,4.44,72480.5,-20.17,-21.13,-21.09,0,*6B
1484546697.64,25132,4.44,72482.5,-20.17,-21.13,-21.13,0,*63
1484546698.87,25133,4.44,72480.3,-20.19,-21.13,-21.13,0,*6C
1484546700.09,25134,4.44,72480.0,-20.17,-21.13,-21.13,0,*65
1484546701.3,25135,4.44,72480.5,-20.17,-21.13,-21.13,0,*64
1484546702.51,25136,4.44,72480.8,-20.17,-21.09,-21.09,0,*67
1484546703.73,25137,4.44,72480.5,-20.17,-21.13,-21.13,0,*66
1484546704.95,25138,4.44,72484.8,-20.17,-21.13,-21.13,0,*69
1484546706.16,25139,4.44,72486.8,-20.17,-21.13,-21.13,0,*68
1484546707.39,25140,4.44,72482.8,-20.15,-21.09,-21.09,0,*64
1484546708.63,25141,4.44,72480.3,-20.15,-21.09,-21.09,0,*65
1484546709.84,25142,4.44,72480.8,-20.17,-21.13,-21.13,0,*64
1484546711.08,25143,4.44,72482.3,-20.19,-21.09,-21.13,0,*60
1484546712.29,25144,4.44,72482.3,-20.17,-21.09,-21.13,0,*69
1484546713.5,25145,4.44,72484.5,-20.17,-21.13,-21.13,0,*63
1484546714.72,25146,4.44,72480.0,-20.17,-21.09,-21.13,0,*6B
1484546715.93,25147,4.44,72480.8,-20.17,-21.09,-21.09,0,*61
1484546717.14,25148,4.44,72478.8,-20.17,-21.13,-21.13,0,*6E
1484546718.38,25149,4.44,72482.3,-20.19,-21.13,-21.13,0,*61
1484546719.59,25150,4.44,72476.8,-20.17,-21.09,-21.13,0,*6C
1484546720.81,25151,4.44,72480.0,-20.17,-21.13,-21.13,0,*66
1484546722.03,25152,4.44,72478.3,-20.17,-21.13,-21.13,0,*65
1484546723.26,25153,4.44,72480.3,-20.19,-21.09,-21.13,0,*61
1484546724.47,25154,4.44,72478.8,-20.17,-21.13,-21.09,0,*68
1484546725.71,25155,4.44,72482.3,-20.19,-21.09,-21.13,0,*67
1484546726.92,25156,4.44,72482.3,-20.17,-21.13,-21.13,0,*61
1484546728.14,25157,4.44,72482.8,-20.17,-21.13,-21.09,0,*6B
1484546729.35,25158,4.44,72482.5,-20.17,-21.13,-21.13,0,*6F
1484546730.57,25159,4.44,72480.5,-20.17,-21.13,-21.13,0,*6E
1484546731.78,25160,4.44,72480.5,-20.17,-21.13,-21.09,0,*6F
1484546732.99,25161,4.44,72480.5,-20.17,-21.09,-21.13,0,*6E
1484546734.2,25162,4.44,72482.0,-20.17,-21.09,-21.09,0,*66
1484546735.44,25163,4.44,72480.5,-20.19,-21.13,-21.13,0,*69
1484546736.68,25164,4.44,72480.3,-20.19,-21.09,-21.13,0,*65
1484546737.89,25165,4.44,72480.8,-20.17,-21.09,-21.13,0,*6A
1484546739.11,25166,4.44,72476.8,-20.17,-21.13,-21.13,0,*62
1484546740.35,25167,4.44,72478.8,-20.17,-21.09,-20.99,0,*6B
1484546741.59,25168,4.44,72482.3,-20.17,-20.99,-21.13,0,*6F
1484546742.88,25169,4.44,72480.3,-20.15,-21.03,-21.03,0,*6F
1484546744.14,25170,4.44,72482.5,-20.19,-21.09,-20.99,0,*63
1484546745.38,25171,4.44,72478.0,-20.19,-21.13,-21.09,0,*61
1484546746.61,25172,4.44,72480.8,-20.19,-21.09,-21.09,0,*69
1484546747.82,25173,4.44,72482.8,-20.17,-21.09,-21.09,0,*66
1484546749.05,25174,4.44,72480.0,-20.19,-21.09,-21.09,0,*6F
1484546750.27,25175,4.44,72480.0,-20.17,-21.09,-20.93,0,*62
1484546751.49,25176,4.44,72480.0,-20.17,-21.13,-20.93,0,*6A
1484546752.72,25177,4.44,72476.3,-20.19,-21.09,-21.09,0,*6C
1484546753.99,25178,4.44,72476.0,-20.19,-21.09,-20.99,0,*6B
1484546755.2,25179,4.44,72480.3,-20.17,-21.09,-21.09,0,*6C
1484546756.46,25180,4.44,72480.0,-20.19,-21.09,-20.99,0,*6C
1484546757.72,25181,4.44,72484.5,-20.19,-21.09,-20.99,0,*6D
1484546758.99,25182,4.44,72484.5,-20.19,-20.99,-21.09,0,*6E
1484546760.22,25183,4.44,72484.8,-20.19,-21.09,-21.09,0,*67
1484546761.43,25184,4.44,72482.0,-20.17,-21.09,-21.13,0,*65
1484546762.7,25185,4.44,72484.8,-20.17,-20.99,-20.99,0,*6F
1484546763.94,25186,4.44,72482.8,-20.17,-21.09,-20.99,0,*64
1484546765.21,25187,4.44,72486.3,-20.19,-21.13,-20.99,0,*60
1484546766.45,25188,4.44,72484.3,-20.17,-21.09,-20.99,0,*6A
1484546767.7,25189,4.44,72486.8,-20.17,-20.99,-20.93,0,*69
1484546768.94,25190,4.44,72480.8,-20.17,-20.93,-20.99,0,*61
1484546770.18,25191,4.44,72484.5,-20.17,-20.93,-20.99,0,*60
1484546771.45,25192,4.44,72480.0,-20.17,-20.99,-20.99,0,*69
1484546772.67,25193,4.44,72482.5,-20.17,-20.93,-20.93,0,*68
1484546773.91,25194,4.44,72480.3,-20.17,-20.93,-20.99,0,*65
1484546775.16,25195,4.44,72480.3,-20.17,-20.93,-20.99,0,*64
1484546776.41,25196,4.44,72482.8,-20.17,-20.99,-20.93,0,*67
1484546777.68,25197,4.44,72480.0,-20.17,-20.99,-20.99,0,*6C
1484546778.92,25198,4.44,72484.3,-20.17,-20.93,-20.99,0,*69
1484546780.19,25199,4.44,72488.3,-20.19,-20.99,-20.93,0,*66
1484546781.43,25200,4.44,72484.8,-20.17,-21.09,-20.99,0,*69
1484546782.7,25201,4.44,72484.8,-20.17,-20.99,-20.99,0,*60
1484546783.97,25202,4.44,72484.3,-20.17,-20.99,-20.99,0,*63
1484546785.24,25203,4.44,72486.5,-20.17,-20.99,-20.99,0,*62
1484546786.51,25204,4.44,72484.3,-20.17,-20.99,-20.99,0,*65
1484546787.76,25205,4.44,72480.3,-20.17,-20.99,-20.93,0,*6E
1484546789.03,25206,4.44,72482.3,-20.17,-20.99,-20.99,0,*67
1484546790.3,25207,4.44,72482.8,-20.17,-20.99,-20.99,0,*66
1484546791.57,25208,4.44,72480.5,-20.17,-20.99,-20.99,0,*69
1484546792.78,25209,4.44,72480.3,-20.17,-21.09,-21.09,0,*68
1484546794.05,25210,4.44,72486.3,-20.19,-21.13,-20.99,0,*6D
1484546795.29,25211,4.44,72482.8,-20.17,-21.09,-20.99,0,*69
1484546796.53,25212,4.44,72480.5,-20.17,-21.09,-20.99,0,*6A
1484546797.77,25213,4.44,72480.8,-20.17,-21.09,-20.99,0,*6B
1484546799.01,25214,4.44,72486.8,-20.17,-21.09,-20.99,0,*6C
1484546800.25,25215,4.44,72484.8,-20.17,-21.09,-20.99,0,*6D
1484546801.49,25216,4.44,72482.8,-20.17,-21.09,-20.99,0,*6E
1484546802.7,25217,4.44,72484.0,-20.17,-21.13,-21.09,0,*6C
1484546803.91,25218,4.44,72480.0,-20.17,-21.09,-21.09,0,*68
1484546805.15,25219,4.44,72480.5,-20.17,-21.13,-20.99,0,*6A
1484546806.45,25220,4.44,72482.5,-20.15,-21.03,-21.03,0,*61
1484546807.74,25221,4.44,72484.0,-20.15,-21.03,-21.03,0,*60
1484546808.98,25222,4.44,72484.5,-20.17,-21.09,-20.99,0,*69
1484546810.19,25223,4.44,72486.8,-20.17,-21.09,-21.09,0,*60
1484546811.43,25224,4.44,72480.0,-20.17,-21.09,-20.99,0,*6F
1484546812.66,25225,4.44,72482.0,-20.19,-21.09,-21.09,0,*68
1484546813.9,25226,4.44,72482.0,-20.17,-21.09,-20.99,0,*6D
1484546815.17,25227,4.44,72482.5,-20.17,-20.99,-20.99,0,*64
1484546816.42,25228,4.44,72480.3,-20.17,-20.99,-20.93,0,*61
1484546817.66,25229,4.44,72482.3,-20.17,-21.09,-20.99,0,*62
1484546818.92,25230,4.44,72480.5,-20.19,-21.09,-20.99,0,*64
1484546820.19,25231,4.44,72486.5,-20.17,-20.99,-20.99,0,*63
1484546821.44,25232,4.44,72478.5,-20.17,-20.99,-20.93,0,*6A
1484546822.71,25233,4.44,72480.3,-20.17,-20.99,-20.99,0,*61
1484546823.98,25234,4.44,72486.8,-20.17,-20.99,-20.99,0,*66
1484546825.25,25235,4.44,72486.0,-20.15,-20.93,-20.99,0,*6F
1484546826.49,25236,4.44,72482.0,-20.15,-20.93,-20.89,0,*6D
1484546827.74,25237,4.44,72482.5,-20.15,-20.93,-20.93,0,*67
1484546829.01,25238,4.44,72480.0,-20.15,-21.03,-20.93,0,*60
1484546830.27,25239,4.44,72480.0,-20.15,-21.03,-20.93,0,*61
1484546831.52,25240,4.44,72482.0,-20.15,-20.89,-20.93,0,*6C
1484546832.76,25241,4.44,72482.5,-20.15,-20.93,-20.93,0,*66
1484546834.01,25242,4.44,72480.0,-20.15,-20.89,-20.93,0,*6E
1484546835.25,25243,4.44,72486.0,-20.15,-20.93,-20.93,0,*64
1484546836.5,25244,4.44,72482.5,-20.15,-20.93,-20.89,0,*68
1484546837.75,25245,4.44,72480.3,-20.15,-20.93,-20.89,0,*69
1484546838.99,25246,4.44,72480.8,-20.15,-20.93,-20.93,0,*61
1484546840.24,25247,4.44,72484.0,-20.15,-20.89,-20.89,0,*60
1484546841.49,25248,4.44,72486.0,-20.15,-20.93,-20.93,0,*6F
1484546842.73,25249,4.44,72480.0,-20.15,-20.93,-20.93,0,*6E
1484546844.0,25250,4.44,72480.5,-20.15,-21.03,-20.93,0,*6E
1484546845.24,25251,4.44,72480.0,-20.15,-20.93,-20.93,0,*67
1484546846.49,25252,4.44,72482.0,-20.13,-21.03,-20.93,0,*6A
1484546847.71,25253,4.44,72480.5,-20.13,-20.93,-20.93,0,*63
1484546848.95,25254,4.44,72482.3,-20.15,-20.93,-20.93,0,*62
1484546850.17,25255,4.44,72482.3,-20.13,-20.93,-20.93,0,*65
1484546851.41,25256,4.44,72480.5,-20.15,-20.93,-20.93,0,*60
1484546852.65,25257,4.44,72484.3,-20.15,-20.93,-20.93,0,*61
1484546853.89,25258,4.44,72482.3,-20.15,-20.93,-20.93,0,*6E
1484546855.14,25259,4.44,72482.5,-20.15,-20.93,-20.89,0,*64
1484546856.37,25260,4.44,72480.5,-20.13,-20.89,-20.89,0,*63
1484546857.59,25261,4.44,72480.5,-20.13,-20.93,-20.93,0,*62
1484546858.84,25262,4.44,72482.8,-20.15,-20.89,-20.93,0,*6C
1484546860.06,25263,4.44,72482.8,-20.13,-20.89,-20.89,0,*60
1484546861.31,25264,4.44,72482.5,-20.15,-20.89,-20.93,0,*6A
1484546862.56,25265,4.44,72482.3,-20.15,-20.89,-20.89,0,*60
1484546863.82,25266,4.44,72480.0,-20.15,-20.89,-20.89,0,*63
1484546865.07,25267,4.44,72482.3,-20.15,-20.89,-20.89,0,*62
1484546866.31,25268,4.44,72480.0,-20.15,-20.93,-20.93,0,*6D
1484546867.56,25269,4.44,72484.3,-20.15,-20.89,-20.93,0,*67
1484546868.81,25270,4.44,72480.0,-20.15,-20.89,-20.89,0,*64
1484546870.06,25271,4.44,72486.0,-20.15,-20.93,-20.89,0,*6E
1484546871.31,25272,4.44,72482.8,-20.15,-20.89,-20.89,0,*66
1484546872.56,25273,4.44,72486.0,-20.15,-20.93,-20.89,0,*6C
1484546873.78,25274,4.44,72484.5,-20.13,-20.89,-20.93,0,*6D
1484546875.03,25275,4.44,72484.8,-20.15,-20.93,-20.89,0,*6A
1484546876.26,25276,4.44,72484.3,-20.13,-20.93,-20.89,0,*6F
1484546877.51,25277,4.44,72482.8,-20.15,-20.89,-20.89,0,*63
1484546878.74,25278,4.44,72486.3,-20.13,-20.93,-20.89,0,*61
1484546879.97,25279,4.44,72482.3,-20.13,-20.89,-20.89,0,*6B
1484546881.22,25280,4.44,72480.5,-20.15,-20.93,-20.89,0,*60
1484546882.44,25281,4.44,72484.0,-20.13,-20.89,-20.89,0,*6C
1484546883.7,25282,4.44,72484.8,-20.15,-20.89,-20.89,0,*69
1484546884.95,25283,4.44,72482.0,-20.15,-20.89,-20.89,0,*68
1484546886.18,25284,4.44,72482.0,-20.13,-20.93,-20.89,0,*62
1484546887.4,25285,4.44,72482.5,-20.13,-20.89,-20.89,0,*68
1484546888.63,25286,4.44,72480.8,-20.13,-20.93,-20.89,0,*60
1484546889.86,25287,4.44,72482.3,-20.13,-20.89,-20.89,0,*6A
1484546891.09,25288,4.44,72482.0,-20.13,-20.89,-20.89,0,*65
1484546892.31,25289,4.44,72484.5,-20.13,-20.89,-20.93,0,*6F
1484546893.57,25290,4.44,72484.3,-20.15,-20.89,-20.89,0,*6A
1484546894.79,25291,4.44,72482.0,-20.13,-20.89,-20.89,0,*6D
1484546896.02,25292,4.44,72484.8,-20.13,-20.89,-20.89,0,*6E
1484546897.27,25293,4.44,72480.3,-20.15,-20.93,-20.89,0,*62
1484546898.5,25294,4.44,72480.8,-20.13,-20.89,-20.89,0,*68